Volver al catálogo

COSMOS 2251 DEB

ActivoLEO
NORAD 36379·DEBRIS·🇷🇺 Russia

Lanzado Jun 16, 1993 desde Plesetsk Cosmodrome

Loading…

Próximos Pases (próximas 24 horas)

TLE

EnvejeciendoSource: Space-Track

Época: Sep 10, 2026, 11:09 UTC

1 36379U 93036AZG 26253.46468927  .00000364  00000-0  13169-3 0  9999
2 36379  74.0129 167.0157 0047272 232.3854 247.2500 14.36445902687299

Sigue COSMOS 2251 DEB en tiempo real con AllMySat

Download on the App Store